THORAD AGENA D DEB, 42494

Orbit data source: Space-Track

THORAD AGENA D DEB, 42494 is space debris in SSO originally from a launch on Wed, 08 Apr 1970 UTC launched from the Air Force Western Test Range (AFWTR). Debris objects in space refer to the collection of defunct objects orbiting the Earth. Examples of debris include non-operational satellites, rocket bodies, and fragments generated from explosions, collisions, or faulty payload assembly.

Loading next visibility...
Identifier
42494, 1970-025QY
Orbit
SSO
Country
Flag of USUS
Related business
Manufacturer
Unknown
Mission
Spacecraft
Bus & Motor
Unknown
Mass
Unknown
Launch date (UTC)
1970-04-08 (56 years ago)
Launch vehicle
Unknown
Launch site
Air Force Western Test Range (AFWTR)
Object type
Payload
Rocket body
Debris
Shape & HBR
Unknown shape, 0.1 m
Radar Cross Section
Small (<0.1 m²)

Expand to show TLE details & history
Last TLE update: 4 days ago

TLE from 4 days ago
0 THORAD AGENA D DEB
1 42494U 70025QY  25337.01882228  .00000579  00000-0  80982-3 0  9999
2 42494  99.7135  54.2343 0097721 301.7095  57.4547 13.60109851584789
Epoch: 2025-12-03T00:27Z
TLE epoch observation values (Epoch: 2025-12-03T00:27:06.244Z)
Latitude
-0°
Longitude
-24.63736°
Altitude
999.619 km
Speed
7.371 km/s
True Right ascension
03h 36m 56s
True Declination
0° 00' 00"
Sunlit
Object was in full shadow at epoch
Visualization orbit readout
Latitude
Unknown
Longitude
Unknown
Altitude
Unknown
Speed
Unknown
Apparent Right ascension
Unknown
Apparent Declination
Unknown
Sunlit
N/A
Visualization observer readout
Local Sidereal Time
09:15:46
Azimuth
Unknown
Elevation
Unknown
Doppler factor
Unknown
Orbital elements
Apogee altitude
1,104.999 km
Perigee altitude
960.163 km
Semi-major axis
7,410.718 km
Eccentricity
0.00977
Inclination
99.7135°
RAAN
54.2343°
Arg. of periapsis
301.7095°
True anomaly
58.40485°
Mean anomaly
57.4547°
Eccentric anomaly
57.92915°
Mean motion
3.40214 °/min
Orbital period
105.82 mins
BSTAR
0.00080982

Documentation

Showing up to 5 results
|